Wind_Speed
59 59 59 60 60 60 61 60 59 58 61 65 68 68 67 66 66 66 66 66 67 70 72 70 68 65 63 61 60 59 59 58 58 58 58 58 59 58 58 58 58 58 58 58 58 59 60 62 63 65 67 68 69 68 67 65 63 60 57 55 52 50 49 48 48 48 48 48 48 48 47 46 45 45 44 43 43 42 42 41 41 40 40 39 38 38
59 59 59 59 59 59 60 58 57 57 61 65 68 70 71 72 72 71 70 70 72 73 74 72 69 65 63 62 61 60 60 61 61 62 62 61 61 61 61 61 61 61 60 61 61 62 63 64 65 66 67 67 67 67 65 63 61 59 57 55 53 51 50 48 48 48 48 49 49 49 48 48 47 46 45 45 44 44 43 43 42 42 41 40 40 40
59 59 59 59 59 59 59 58 57 58 61 64 67 70 73 74 75 75 74 75 76 77 75 72 68 65 63 62 62 63 64 65 66 66 66 65 65 64 64 64 63 63 63 64 64 64 65 65 66 66 66 65 65 64 62 61 59 58 56 55 53 52 51 49 49 49 49 50 50 50 49 49 48 48 47 46 46 45 45 44 44 43 43 42 41 41
59 58 59 59 60 61 61 61 61 61 63 65 67 69 71 74 76 77 77 77 77 76 73 69 66 64 63 64 65 67 69 71 71 71 71 69 68 67 67 67 66 66 66 66 66 66 66 66 65 64 64 63 62 61 60 59 58 57 56 55 54 53 52 50 50 50 50 51 51 51 51 50 50 49 49 48 47 47 46 46 45 45 44 44 43 43
60 60 60 61 62 63 64 64 64 64 65 67 68 70 71 73 74 75 75 74 73 70 67 66 65 66 67 69 71 72 74 75 75 75 74 73 72 71 70 69 69 68 68 69 69 68 67 66 64 63 62 61 60 60 59 58 57 57 56 56 55 54 53 52 51 51 51 52 52 52 52 52 51 51 50 50 49 49 48 48 47 46 46 45 45 44
62 63 63 64 65 66 67 67 67 67 68 70 71 72 72 71 70 70 69 68 66 64 63 63 66 68 71 74 75 76 77 77 77 77 76 75 74 73 72 72 71 71 71 71 70 69 68 66 64 63 61 60 59 59 58 57 57 57 57 56 56 55 54 53 52 52 52 53 53 53 53 53 53 52 52 51 51 50 50 49 49 48 47 47 46 46
65 66 66 67 68 69 70 70 70 70 71 72 73 73 71 69 68 66 65 64 64 63 63 63 66 70 74 76 77 78 78 78 78 78 77 76 76 75 74 74 73 73 73 72 72 70 68 66 64 62 61 60 59 58 57 57 57 57 57 57 56 56 55 55 54 54 54 54 54 55 55 54 54 54 53 53 52 52 51 51 50 50 49 48 48 47
66 67 68 69 70 70 71 72 72 73 73 73 73 72 70 69 67 66 65 65 65 66 66 67 68 71 75 77 78 78 78 78 79 79 78 78 77 76 76 76 75 75 74 73 72 70 68 66 64 62 61 59 58 58 57 57 57 57 57 57 57 57 56 56 56 55 55 55 56 56 56 56 55 55 55 54 54 53 53 52 52 51 51 50 49 49
64 66 67 68 69 70 70 71 71 72 72 72 72 71 70 69 69 68 68 68 69 70 71 71 72 74 75 77 77 77 77 78 78 79 79 79 79 78 78 77 77 75 74 72 71 69 67 65 64 62 61 59 58 58 57 57 57 57 58 58 58 58 58 58 57 57 57 57 57 58 57 57 57 56 56 56 55 55 54 54 53 53 52 51 51 50
62 63 65 65 66 67 68 69 70 70 70 71 71 71 71 71 70 70 71 71 72 72 73 74 74 74 74 74 74 74 74 74 76 77 78 78 79 79 78 78 76 75 73 71 69 68 66 65 64 63 62 60 60 59 58 58 58 58 59 59 59 59 59 59 59 59 59 59 59 59 59 59 58 58 57 57 57 56 56 55 55 54 53 53 52 52
62 63 64 65 65 66 67 68 69 70 70 71 71 72 72 72 71 72 72 72 72 72 73 73 73 72 72 71 71 70 70 70 71 72 74 75 76 76 76 76 75 73 72 70 69 67 66 65 65 64 63 62 61 60 60 60 59 60 60 60 61 61 61 61 61 61 61 61 61 61 60 60 59 59 58 58 58 58 57 57 56 56 55 54 54 53
64 65 65 66 67 67 68 69 69 70 70 71 71 72 72 71 71 71 71 71 71 71 71 71 71 71 70 70 69 69 69 69 69 70 70 71 72 73 73 73 72 71 71 70 69 68 67 67 66 65 65 64 63 63 62 62 61 62 62 62 62 63 63 63 63 63 62 62 62 62 62 61 61 60 60 59 59 59 59 58 58 57 57 56 55 55
66 66 67 67 68 68 68 69 69 70 70 70 70 71 71 71 70 71 71 71 71 71 71 71 71 71 71 71 71 71 70 70 70 70 70 71 71 71 72 72 72 71 71 70 70 69 69 68 68 67 67 66 65 65 64 64 64 64 64 64 64 64 65 65 65 64 64 64 64 64 63 63 62 62 61 61 60 60 60 60 59 59 58 58 57 57
66 66 66 67 67 68 68 68 69 69 70 70 70 71 71 71 71 71 72 72 72 72 72 72 73 73 73 73 73 73 73 73 73 73 73 73 73 73 73 73 73 73 72 72 72 71 71 70 70 70 69 69 68 68 67 67 66 66 66 66 66 66 66 66 66 66 66 66 66 66 65 65 64 64 63 62 62 62 61 61 61 61 60 60 59 59
65 66 66 67 68 68 68 69 70 70 71 71 71 72 72 73 73 73 74 74 74 74 74 75 75 75 75 75 75 76 76 76 76 75 75 75 75 75 75 75 75 75 75 74 74 74 73 73 73 73 72 72 71 71 70 69 69 69 68 68 68 68 68 68 68 68 68 68 68 67 67 67 66 65 65 64 64 63 63 63 62 62 62 62 61 61
67 67 68 68 69 70 70 71 72 72 73 73 74 74 75 75 76 76 76 77 77 77 77 77 77 77 77 77 78 78 78 78 78 78 77 77 77 77 77 77 77 77 77 76 76 76 76 76 76 76 75 75 74 74 73 72 72 71 71 71 70 70 70 70 70 70 70 70 70 69 69 69 68 68 67 67 66 66 65 65 64 64 64 64 63 63
69 70 70 71 71 72 73 73 74 75 75 76 76 77 77 78 78 78 79 79 79 79 80 80 80 80 79 79 80 80 81 81 81 81 80 79 79 79 79 79 79 79 79 78 78 79 79 79 79 78 78 77 77 77 76 75 75 74 74 73 73 72 72 72 72 72 72 72 72 71 71 71 70 70 70 69 69 68 68 67 66 66 66 66 65 65
72 72 73 73 74 74 75 75 76 77 77 78 78 79 79 80 80 81 81 81 82 82 82 82 82 82 82 82 82 82 83 83 83 83 82 82 82 82 82 81 81 81 81 80 81 81 81 81 81 81 80 80 80 79 79 78 77 77 76 76 75 75 75 74 74 74 74 74 74 74 73 73 73 72 72 72 71 71 70 69 69 68 68 67 67 67
73 74 75 75 76 76 77 77 78 79 79 80 81 81 81 82 82 83 83 83 84 84 84 84 84 84 83 84 84 84 84 85 85 85 85 84 84 84 83 83 83 83 83 83 82 83 83 83 83 83 82 82 82 81 81 80 80 79 79 78 78 77 77 77 76 76 76 76 76 76 76 75 75 75 74 74 74 73 73 72 71 71 70 70 69 69
75 76 76 77 78 78 79 79 80 81 81 82 82 83 83 84 84 84 85 85 86 86 86 86 86 86 85 85 86 86 86 86 87 87 87 86 86 86 85 85 85 85 85 85 84 84 84 84 84 84 84 84 84 83 83 83 82 82 81 80 80 79 79 79 78 78 78 78 78 78 78 77 77 77 77 76 76 76 75 74 74 73 73 72 71 71
77 78 79 79 80 80 81 82 82 83 83 84 84 85 85 86 86 86 87 87 87 88 88 88 88 88 88 88 88 88 89 89 89 89 89 89 88 88 88 88 88 88 87 87 87 87 86 86 86 86 86 86 85 85 85 85 84 84 83 83 82 82 81 81 81 80 80 80 80 79 79 79 79 79 79 78 78 78 77 77 76 76 75 74 74 73
80 80 81 82 82 83 83 84 85 85 86 86 87 87 88 88 88 89 89 90 90 90 90 90 91 91 91 90 91 91 92 92 92 92 92 92 91 91 91 90 90 90 90 90 89 89 89 89 89 89 88 88 88 88 87 87 87 86 86 86 85 85 84 84 83 83 82 82 82 81 81 81 81 81 80 80 80 80 79 79 78 78 77 77 76 75
83 83 84 84 85 86 86 87 88 88 89 89 90 90 91 91 91 92 92 93 93 93 93 93 94 93 93 93 94 94 94 95 95 95 95 95 94 94 94 94 94 94 93 93 93 92 92 92 92 91 91 91 91 91 90 90 90 89 89 89 88 88 87 87 87 86 85 85 84 84 83 83 82 82 82 82 82 82 81 81 80 80 79 79 78 78
86 86 87 88 88 89 90 90 91 91 92 92 93 94 94 94 95 95 96 96 96 96 96 96 96 96 96 96 96 96 97 97 98 98 98 98 98 98 97 97 97 97 97 97 96 95 95 95 95 95 94 94 94 94 94 93 93 93 92 92 92 91 91 91 90 90 89 88 88 87 86 86 85 84 84 84 84 83 83 83 83 82 82 81 81 80
89 90 90 91 91 92 93 93 94 94 95 95 96 97 97 98 98 98 99 99 99 99 99 99 99 98 99 98 98 98 99 100 100 100 101 101 101 100 100 100 100 100 100 100 99 99 98 98 98 97 97 97 97 97 97 96 96 96 95 95 95 95 94 94 94 93 93 92 91 91 90 89 88 87 87 86 86 86 85 85 85 84 84 83 83 82
92 92 93 94 94 95 95 96 97 97 98 98 99 99 100 100 100 101 101 102 102 102 102 102 101 101 101 101 101 101 102 102 102 103 103 103 103 103 103 102 102 102 103 103 102 102 101 101 101 100 100 99 100 100 99 99 99 99 98 98 98 98 97 97 97 97 96 96 95 94 94 93 92 91 90 89 89 88 88 87 87 87 86 86 85 85
94 95 96 96 97 97 98 99 99 100 100 101 101 102 102 102 103 103 103 104 104 104 104 104 104 104 104 103 103 103 104 104 105 105 106 106 105 105 105 105 105 104 105 105 105 104 104 103 103 103 102 102 102 102 102 102 102 101 101 101 101 100 100 100 100 100 99 99 98 98 97 96 95 94 94 93 92 91 90 90 90 89 89 88 88 87
97 97 98 99 99 100 100 101 101 102 102 103 104 104 105 105 105 105 106 107 107 107 107 107 107 107 106 106 106 106 106 106 107 108 108 108 107 107 108 108 107 107 107 107 108 107 106 106 105 105 105 105 104 104 104 104 104 104 104 103 103 103 103 103 102 102 102 102 101 101 100 99 98 98 97 96 95 94 93 93 92 92 92 91 90 90
99 100 101 101 102 102 103 103 104 104 105 105 106 107 107 107 107 108 109 109 109 109 109 110 110 109 109 109 109 109 109 109 110 110 111 110 110 110 111 111 110 110 110 110 110 110 109 108 108 108 107 107 107 107 107 107 107 106 106 106 106 105 105 105 105 104 104 104 104 103 103 102 101 101 100 99 98 97 97 96 96 95 95 94 93 92
102 102 103 103 104 104 105 105 106 107 107 107 108 109 109 110 110 110 111 112 112 111 112 112 112 112 112 112 112 111 111 112 113 113 113 112 113 114 115 114 113 113 113 113 112 112 112 112 111 110 110 110 110 110 110 110 109 109 109 109 109 108 108 107 107 107 107 107 106 106 105 105 104 104 103 102 101 101 100 99 99 98 97 96 96 95
104 105 105 106 106 107 107 108 108 109 109 110 110 111 111 112 112 112 113 113 114 114 114 114 115 115 115 114 114 113 114 114 115 116 115 114 115 117 117 116 116 116 117 116 115 114 114 115 114 113 112 112 112 112 112 112 112 112 112 112 111 111 111 110 110 110 109 109 109 109 108 108 107 106 106 105 104 104 103 102 101 101 100 99 98 98
107 108 108 108 109 109 110 110 111 111 111 112 112 113 113 114 114 114 115 115 115 116 116 116 116 117 117 117 116 115 116 116 117 117 117 116 117 118 119 118 118 118 119 119 118 117 117 117 117 116 115 114 114 115 115 114 114 114 114 114 114 113 113 113 112 112 112 112 112 111 111 110 110 109 108 108 107 106 106 105 104 103 102 101 101 100
110 110 111 111 111 112 112 112 112 113 113 113 113 114 114 114 115 115 115 116 116 116 116 116 116 116 117 117 116 116 116 116 117 117 116 115 115 117 119 118 117 117 119 119 119 118 118 118 118 118 117 116 116 116 116 115 115 115 115 115 115 115 115 115 114 114 114 114 114 113 113 113 112 112 111 110 110 109 108 107 106 106 105 104 103 102
111 112 112 112 112 112 113 113 113 112 112 112 112 112 112 112 112 112 112 112 112 112 112 111 111 111 112 112 112 111 111 111 112 113 112 110 111 113 114 114 113 114 114 115 115 116 116 116 117 117 116 116 116 116 115 115 115 115 115 115 115 115 115 115 115 114 115 115 115 115 114 114 114 113 113 112 112 111 110 109 109 108 107 106 105 105
110 110 110 110 109 109 109 109 108 108 107 107 107 106 106 105 104 104 104 103 103 103 102 102 102 102 101 101 101 101 101 102 103 103 102 101 102 104 105 105 106 106 106 107 108 109 109 110 111 111 111 112 112 112 112 112 112 112 113 113 113 113 113 113 113 113 113 114 114 114 114 114 114 114 114 113 113 112 112 111 110 110 109 109 108 107
104 104 103 102 101 101 100 100 99 98 97 96 96 95 94 93 92 92 91 91 90 89 89 89 89 89 88 88 87 87 88 89 90 89 88 89 90 92 92 93 95 95 94 95 97 98 99 99 101 102 103 102 103 104 105 105 105 105 106 107 108 108 108 109 109 109 110 110 111 112 112 113 113 113 113 113 113 113 112 112 111 111 110 110 109 109
93 92 91 90 89 87 87 86 85 84 83 82 81 81 79 78 78 77 77 76 75 75 74 74 74 74 73 73 73 73 74 75 75 74 74 75 77 77 78 80 82 82 81 81 84 86 87 87 88 90 91 91 91 93 94 95 95 95 96 98 99 100 100 101 102 103 104 104 106 107 108 108 109 109 110 111 111 111 111 111 111 111 110 110 110 109
78 77 77 76 74 72 71 71 70 69 67 66 66 65 64 63 62 62 62 61 61 60 60 60 60 60 59 59 59 59 59 59 59 60 61 62 62 63 64 66 68 69 68 68 70 72 74 74 75 76 77 78 79 80 81 82 83 83 85 88 89 89 90 91 93 94 95 96 98 100 101 102 103 104 105 106 106 107 107 108 108 109 109 109 109 108
63 62 61 60 59 57 56 55 55 54 53 52 51 51 50 49 49 49 49 48 48 48 48 48 48 48 48 47 47 47 47 47 47 48 49 50 51 52 53 54 55 56 57 57 58 59 60 61 62 63 63 64 65 66 68 69 70 72 74 76 77 77 79 80 82 83 85 87 88 90 91 93 94 96 97 99 100 100 101 103 104 105 105 105 106 106
48 48 47 46 45 44 43 43 43 42 41 41 40 40 40 40 40 40 40 40 40 41 41 41 41 41 41 41 40 40 40 40 41 41 42 43 43 44 45 46 47 47 48 48 48 49 49 50 50 51 51 51 52 53 54 55 57 59 61 62 63 65 67 68 69 72 74 77 78 80 81 83 85 86 88 90 91 93 94 96 98 99 100 101 101 102
37 37 37 37 36 36 35 35 35 34 34 34 34 34 35 35 36 36 37 38 38 39 40 40 40 40 40 40 39 39 39 39 39 40 40 40 41 41 42 42 43 43 43 43 43 42 42 42 42 42 42 42 43 43 44 45 46 48 49 50 52 54 56 57 58 61 64 66 68 70 72 73 75 77 78 80 82 84 86 88 90 91 93 95 96 96
31 31 31 31 31 31 31 31 30 30 30 31 31 32 33 33 34 34 36 37 38 39 40 40 40 40 40 40 40 40 40 40 41 41 41 41 41 41 42 42 41 41 41 40 40 40 39 39 38 38 38 38 37 37 38 38 39 39 40 42 44 45 46 47 49 52 54 56 59 61 62 64 66 68 69 71 73 76 78 79 81 83 84 86 88 89
29 29 29 29 29 28 28 28 28 28 29 29 29 30 31 31 32 33 34 35 37 38 39 39 40 39 39 40 40 40 41 41 41 41 41 41 42 42 42 42 41 41 40 40 39 39 39 38 38 38 38 38 37 36 35 35 35 35 36 37 38 38 38 40 42 44 46 48 51 52 54 56 58 60 61 63 65 67 69 70 72 74 75 77 79 81
27 27 27 27 27 26 26 26 26 26 26 27 27 28 29 30 31 32 34 35 37 38 39 39 39 39 39 39 39 39 39 40 40 40 40 40 40 41 41 41 41 40 40 39 39 39 39 38 38 38 38 38 37 36 36 35 35 35 35 35 35 35 36 37 38 39 41 43 45 46 48 49 51 53 54 56 57 59 60 62 63 65 67 68 70 72
25 25 25 25 25 25 24 24 25 25 25 26 27 28 30 31 32 34 35 37 38 39 40 40 40 39 39 38 37 37 37 37 37 38 38 38 38 38 38 38 39 38 38 38 38 37 37 37 37 37 38 37 37 37 36 36 35 35 36 36 36 35 36 36 37 37 39 40 41 42 43 45 46 47 48 49 51 52 53 54 55 57 58 60 61 63
24 24 24 24 24 24 24 24 24 25 26 27 29 30 32 33 35 36 38 39 40 41 41 41 40 39 38 37 36 35 34 34 34 35 35 36 36 36 36 36 36 36 36 36 36 36 35 36 36 36 36 36 36 36 36 36 35 36 36 36 36 36 36 36 37 37 38 39 39 40 41 42 42 42 43 44 45 46 47 48 49 50 51 52 54 56
24 24 24 25 25 25 25 25 26 27 28 29 30 32 33 35 37 38 40 41 41 41 41 40 38 37 35 34 33 32 31 30 31 31 32 32 33 33 33 33 33 33 33 33 34 34 34 34 35 35 35 35 35 35 35 35 35 35 36 36 36 37 37 37 37 38 38 39 39 40 40 40 40 40 39 39 40 40 41 42 43 44 45 46 48 49
27 27 27 27 27 27 27 28 28 28 29 30 31 33 34 36 38 39 40 41 40 39 38 36 34 32 30 29 28 27 26 26 26 27 28 29 29 30 30 30 31 31 31 31 32 32 32 33 33 34 34 35 35 35 35 35 36 36 36 37 37 37 37 38 38 38 39 39 39 40 40 39 39 38 38 37 37 37 37 38 38 39 40 41 42 43
30 30 30 30 29 29 29 29 29 29 30 31 32 33 35 36 38 39 39 38 37 34 32 29 27 25 24 23 23 22 22 22 22 23 24 25 26 27 27 28 29 29 30 30 30 30 31 31 31 31 32 34 35 35 36 36 36 37 37 38 38 38 38 38 39 39 40 40 40 40 40 40 39 38 37 36 35 35 35 35 35 36 37 37 38 39
33 33 32 32 31 31 31 30 30 30 30 30 31 33 34 36 37 37 36 33 30 27 24 22 20 19 18 18 18 18 19 19 20 21 22 23 24 25 26 27 28 29 30 30 31 31 31 32 32 32 33 34 35 36 37 37 37 37 38 38 39 39 39 39 40 40 41 41 41 41 41 40 40 39 38 37 36 35 34 34 34 34 35 35 35 35
35 35 34 34 33 32 31 31 30 30 30 30 31 32 33 34 34 33 30 27 23 19 17 16 16 16 16 16 17 17 18 19 20 21 22 24 25 26 27 29 30 31 32 33 34 34 35 35 36 36 37 37 38 39 39 39 39 38 38 38 39 39 40 40 41 41 42 42 42 42 42 41 41 40 39 39 37 36 35 34 34 34 34 34 34 34
Wind_Direction
273 273 273 273 273 273 273 273 273 272 272 271 269 266 263 262 263 264 266 268 270 272 274 275 274 272 271 270 270 272 274 276 278 280 280 280 279 278 278 278 277 276 276 274 273 271 270 269 269 269 268 269 269 269 269 268 267 266 265 264 262 260 259 260 260 261 262 262 261 261 260 259 259 258 258 257 257 256 256 256 256 256 256 256 256 256
272 272 273 273 273 273 273 272 270 268 267 266 266 266 266 266 267 268 268 269 270 271 272 272 271 271 270 270 271 273 276 278 280 281 281 281 280 279 279 278 278 277 276 274 272 270 269 268 268 267 267 267 268 268 267 267 266 266 265 263 262 260 259 259 259 261 261 261 261 260 260 259 259 258 258 257 257 256 256 256 256 256 256 256 256 256
272 272 272 273 273 273 271 269 266 264 264 263 264 265 267 268 269 270 270 270 270 271 271 271 271 271 271 273 275 277 279 280 281 281 281 281 280 280 279 279 278 277 276 273 271 269 267 267 267 267 267 267 267 267 267 267 266 265 264 263 261 259 258 258 259 260 260 261 260 260 259 259 258 258 258 257 257 256 256 256 256 255 255 255 255 255
271 271 271 271 271 271 269 266 263 261 260 262 264 266 267 268 269 269 269 269 270 271 271 272 273 274 275 277 279 280 280 280 281 280 280 280 280 279 279 278 277 276 274 272 270 268 267 267 267 267 267 267 267 267 267 267 266 265 263 262 260 259 257 257 257 258 259 260 260 260 259 259 258 258 258 257 257 257 256 256 255 255 255 255 255 255
269 269 268 268 267 267 267 265 263 261 260 263 266 269 269 269 269 268 269 269 270 270 271 273 275 276 277 278 279 279 278 278 278 278 278 278 278 278 277 276 275 274 272 270 269 267 267 267 267 268 268 268 268 268 267 267 266 264 263 261 260 258 257 256 256 257 258 259 259 259 259 259 258 258 258 257 257 257 256 256 255 255 254 254 254 254
266 265 265 264 264 265 265 266 265 265 264 266 268 271 271 270 269 269 269 269 269 269 270 271 273 274 275 276 276 275 275 275 275 275 275 275 275 275 274 274 272 271 270 269 268 268 268 268 268 269 269 269 268 268 267 266 265 263 262 261 259 258 257 256 255 256 257 258 258 259 259 259 258 258 258 257 257 256 256 256 255 255 254 254 253 253
264 263 263 263 263 263 264 265 266 267 267 268 269 270 271 270 270 269 269 269 269 269 269 269 269 270 272 272 273 272 272 272 272 272 272 272 272 272 271 271 270 269 268 268 268 268 269 269 270 270 269 269 268 267 266 265 264 262 261 259 258 257 256 256 255 255 256 257 257 258 258 258 258 258 258 257 257 256 256 255 255 255 254 253 253 253
263 263 263 263 263 264 264 265 265 266 267 268 269 269 269 269 269 269 269 269 269 269 269 269 268 268 269 270 270 271 270 270 270 270 270 270 270 269 269 268 268 267 267 268 268 269 270 271 271 270 270 269 267 266 265 264 262 261 259 258 257 257 256 256 255 255 256 256 256 257 257 257 257 257 257 257 257 256 256 255 255 254 254 253 253 252
264 264 264 264 264 265 265 265 265 266 266 267 268 268 268 268 269 269 269 269 269 269 269 269 269 269 269 270 270 270 270 269 269 268 268 268 268 268 267 267 267 268 268 269 270 270 271 271 271 270 269 268 267 266 264 263 261 260 258 257 257 256 256 256 256 256 256 256 256 256 256 256 256 256 257 256 256 256 255 255 254 254 254 253 253 252
267 266 266 266 266 266 266 266 266 266 267 267 268 268 268 268 269 269 269 269 269 269 270 270 270 270 270 271 271 271 271 270 269 269 268 268 267 267 267 268 268 269 270 270 271 271 271 271 271 270 269 268 267 265 264 262 260 259 258 257 256 256 256 256 256 256 256 256 256 256 256 255 255 255 255 255 255 255 255 255 254 254 253 253 252 252
268 268 268 268 268 267 267 267 268 268 268 268 269 269 269 269 269 269 269 269 270 270 270 270 271 271 271 271 271 272 272 271 271 270 270 269 269 269 269 269 270 270 271 271 271 271 271 270 270 269 269 268 266 265 263 262 260 259 258 257 256 256 256 256 256 257 257 256 256 256 256 255 255 254 254 254 254 254 254 254 254 253 253 252 252 252
270 270 270 269 269 269 269 269 269 269 269 269 270 270 270 270 270 270 270 270 270 270 270 271 271 271 271 271 271 271 271 272 271 271 271 271 270 270 270 270 270 271 271 271 271 270 270 270 269 268 268 267 266 264 263 262 260 259 258 257 256 256 256 256 257 257 257 257 256 256 256 255 255 254 253 253 253 253 253 253 253 253 252 252 252 252
271 271 271 271 271 270 270 270 270 270 270 270 270 270 270 270 270 270 270 270 270 270 270 271 271 271 271 271 271 271 271 271 271 271 271 271 271 271 271 271 271 270 270 270 270 269 269 269 268 268 267 266 265 264 263 261 260 259 258 257 257 256 256 256 256 257 257 256 256 256 256 255 255 254 253 252 252 252 252 252 252 252 252 252 251 251
272 272 272 272 271 271 271 271 271 271 271 271 271 271 271 271 271 271 271 271 270 270 270 270 270 271 271 271 271 271 271 271 270 270 270 270 270 270 270 270 270 270 270 270 269 269 268 268 267 267 266 265 264 263 262 261 260 259 258 257 257 257 256 256 256 256 256 256 256 256 255 255 254 254 253 252 252 251 251 251 251 251 251 251 251 251
273 272 272 272 272 272 271 271 271 271 271 271 271 271 271 271 271 271 271 271 271 271 270 270 270 270 270 271 271 271 271 270 270 270 269 269 269 270 270 270 269 269 269 269 269 268 268 267 267 266 265 264 264 263 262 261 260 259 258 257 257 257 256 256 256 256 256 255 255 255 255 255 254 254 253 253 252 251 250 250 250 250 250 250 250 250
273 272 272 272 272 272 272 272 272 272 272 271 271 271 271 271 271 271 271 271 271 271 271 270 270 270 270 270 270 270 270 270 269 269 269 268 268 268 268 268 268 268 268 268 268 268 267 267 266 265 265 264 263 263 262 261 260 259 258 257 257 256 256 255 255 255 255 255 254 254 254 254 254 253 253 253 252 251 251 250 249 249 249 249 249 250
273 272 272 272 272 272 272 272 272 272 272 271 271 271 271 271 271 271 271 271 270 270 270 270 270 270 270 270 270 269 269 269 269 269 268 268 268 267 267 267 267 267 267 267 267 266 266 266 265 265 264 264 263 262 262 261 260 259 258 257 256 256 255 255 255 254 254 254 254 254 254 253 253 253 253 252 252 252 251 250 250 249 249 248 248 249
273 272 272 272 272 272 272 272 271 271 271 271 271 271 271 270 270 270 270 270 270 269 269 269 269 269 269 269 269 269 268 268 268 268 268 267 267 267 267 266 266 266 266 265 265 265 265 265 264 264 264 263 263 262 262 261 260 259 258 257 256 255 255 254 254 253 253 253 253 253 253 253 253 252 252 252 252 252 251 251 250 249 249 248 248 248
273 272 272 272 272 272 272 271 271 271 271 271 270 270 270 270 270 270 269 269 269 269 269 269 268 268 268 268 268 268 268 268 268 268 267 267 267 267 266 266 266 266 265 265 264 264 264 264 263 263 263 263 262 262 261 261 260 259 259 258 257 256 255 254 253 253 253 252 252 252 252 252 252 252 252 252 251 251 251 251 250 250 249 248 248 247
273 273 273 273 272 272 272 272 272 271 271 271 271 271 270 270 270 270 270 270 269 269 269 269 269 269 269 269 269 269 268 268 268 268 268 267 267 267 267 267 266 266 266 265 265 264 264 264 263 263 263 263 262 262 262 261 261 260 259 259 258 257 256 255 254 253 252 252 251 251 251 251 251 251 251 251 251 251 251 250 250 250 249 249 248 247
275 274 274 274 274 273 273 273 273 272 272 272 272 272 271 271 271 271 271 271 271 271 271 270 270 270 270 270 270 270 270 269 269 269 269 268 268 268 268 268 267 267 267 266 266 266 265 265 264 264 264 263 263 263 263 262 262 261 261 260 259 258 257 256 255 254 253 252 252 251 251 250 250 250 250 250 250 250 250 250 250 250 249 249 249 248
276 276 276 276 275 275 275 275 274 274 274 274 273 273 273 273 272 272 272 272 272 272 272 272 272 272 272 271 271 271 271 271 270 270 270 270 269 269 269 268 268 268 268 267 267 267 267 266 266 266 265 265 264 264 264 263 263 263 262 262 261 260 259 259 257 256 255 254 253 252 251 251 250 250 250 249 249 249 249 249 249 249 249 249 249 248
278 277 277 277 276 276 276 275 275 275 275 274 274 274 274 274 273 273 273 273 272 272 272 272 272 272 272 272 272 272 272 271 271 271 271 270 270 269 269 269 269 268 268 268 268 267 267 267 267 266 266 266 265 265 265 264 264 263 263 263 262 262 261 260 259 258 257 256 255 254 253 252 251 251 250 249 249 249 249 249 249 249 249 249 249 248
278 277 277 277 276 276 276 276 275 275 275 275 274 274 274 274 273 273 273 273 272 272 272 272 272 272 272 271 271 271 271 271 271 271 271 270 270 269 269 269 269 268 268 268 267 267 267 267 266 266 266 266 266 265 265 265 264 264 264 263 263 262 262 261 261 260 259 258 257 256 255 254 253 252 251 250 250 249 249 249 248 248 248 248 248 248
278 277 277 277 276 276 276 275 275 275 275 274 274 274 274 274 273 273 273 273 272 272 272 272 271 271 271 271 271 271 271 271 270 270 270 270 270 269 269 269 268 268 268 267 267 267 267 266 266 266 266 266 265 265 265 265 264 264 264 263 263 263 262 262 261 261 260 259 259 258 257 256 255 254 253 252 251 250 249 249 249 248 248 248 248 248
277 277 277 276 276 276 275 275 275 275 275 274 274 274 274 274 273 273 273 273 273 273 272 272 272 271 271 271 271 271 270 270 270 270 270 270 269 269 269 268 268 268 268 267 267 267 266 266 266 266 266 265 265 265 265 265 264 264 264 263 263 263 262 262 261 261 260 260 259 259 258 257 256 255 254 253 252 251 250 250 249 249 248 248 247 247
277 277 276 276 276 276 275 275 275 275 275 275 274 274 274 274 274 274 274 273 273 273 273 273 272 272 271 271 271 271 271 271 270 270 270 270 270 269 269 269 268 268 268 267 267 266 266 266 266 266 265 265 265 265 265 264 264 264 263 263 263 262 262 262 261 261 261 260 260 259 258 258 257 256 255 254 253 252 251 250 250 249 248 248 247 247
277 277 277 276 276 276 276 276 276 276 275 275 275 275 275 275 274 274 274 274 274 273 273 273 273 272 272 272 271 271 271 271 271 271 270 270 270 270 269 269 268 268 268 267 267 267 266 266 266 265 265 265 265 265 264 264 264 263 263 263 262 262 262 261 261 261 260 260 260 259 258 258 257 256 256 255 254 253 252 251 250 249 249 248 248 247
277 277 277 277 277 277 277 276 276 276 276 276 276 276 276 275 275 275 275 275 274 274 274 274 274 273 273 273 272 272 272 272 272 271 271 271 271 270 270 269 269 268 268 268 267 267 267 266 266 265 265 265 265 264 264 264 264 263 263 262 262 262 261 261 261 261 260 260 259 259 258 258 257 256 256 255 254 253 252 252 251 250 249 249 248 247
277 277 277 277 277 277 277 277 277 276 276 276 276 276 276 276 276 276 275 275 275 275 275 275 274 274 274 274 273 273 273 273 272 272 272 272 272 271 270 270 270 269 268 268 268 267 267 266 266 266 265 265 265 265 264 264 264 263 263 262 262 262 261 261 260 260 260 259 259 259 258 258 257 256 256 255 254 254 253 252 251 250 250 249 248 248
277 277 277 277 277 277 277 277 277 277 276 276 276 276 276 276 276 276 276 276 276 275 275 275 275 275 274 274 274 274 273 273 273 273 273 272 272 272 271 271 270 270 269 269 268 268 267 267 266 266 265 265 265 265 264 264 264 263 263 263 262 262 261 261 260 260 259 259 259 258 258 257 257 256 256 255 254 254 253 252 252 251 250 249 249 248
278 277 277 277 277 277 277 277 277 277 277 277 276 276 276 276 276 276 276 276 276 276 275 275 275 275 275 274 274 274 274 273 273 273 272 272 272 271 271 271 271 270 270 269 269 268 268 267 267 266 266 265 265 265 264 264 264 263 263 263 262 262 261 261 260 260 259 259 258 258 257 257 256 256 256 255 254 254 253 253 252 251 250 250 249 248
278 278 278 278 278 278 277 277 277 277 277 277 277 277 277 277 277 277 277 276 276 276 276 276 275 275 275 275 274 274 274 273 273 273 272 272 271 271 271 271 270 270 270 270 269 269 268 268 267 266 266 265 265 264 264 264 263 263 263 262 262 262 261 261 260 260 259 259 258 258 257 257 256 256 255 255 254 254 253 253 252 251 251 250 249 248
279 279 279 279 279 278 278 278 278 278 278 278 278 278 278 278 277 277 277 277 277 277 276 276 276 275 275 275 275 274 274 273 273 273 272 272 271 271 271 270 270 270 269 269 269 268 268 267 267 266 266 265 265 264 264 263 263 263 262 262 261 261 261 260 260 259 259 259 258 258 257 257 256 256 255 254 254 253 253 252 252 251 251 250 249 248
280 280 280 280 280 280 279 279 279 279 279 279 279 279 278 278 278 278 278 277 277 277 277 277 276 276 276 275 275 275 274 274 273 273 272 272 271 271 271 270 270 270 269 269 268 268 268 267 267 266 266 265 265 264 264 263 263 262 262 261 261 260 260 260 259 259 258 258 258 257 257 256 256 255 255 254 254 253 253 252 251 251 250 250 249 248
281 281 281 281 281 281 280 280 280 280 280 280 279 279 279 279 279 278 278 278 278 278 278 277 277 277 277 276 276 275 275 274 274 273 273 272 272 271 271 271 270 270 269 269 269 268 268 267 267 266 266 265 265 264 264 263 263 262 262 261 261 260 260 259 259 258 258 257 257 257 256 256 256 255 255 254 253 253 252 252 251 250 250 249 249 248
282 282 282 282 282 282 281 281 281 281 281 281 280 280 280 280 280 280 280 279 279 279 279 279 279 279 279 278 278 277 276 275 275 275 274 274 273 272 272 271 271 271 271 270 269 269 268 268 267 267 266 266 265 264 264 263 263 262 262 261 261 260 260 259 259 258 257 257 256 256 256 255 255 255 254 254 253 253 252 251 251 250 249 249 248 247
284 284 283 283 283 283 283 283 282 282 282 282 282 282 282 282 282 282 282 282 282 282 282 282 282 282 282 282 281 280 279 278 278 277 276 275 275 274 274 273 272 272 272 271 270 270 269 269 269 268 267 267 266 265 264 264 263 263 262 261 261 261 260 260 259 258 258 257 256 256 255 255 255 254 254 253 253 252 252 251 250 250 249 248 248 247
286 286 285 285 285 285 286 285 285 285 286 286 286 286 286 286 287 287 287 287 287 287 287 287 286 286 286 286 286 285 284 283 281 280 279 278 278 277 276 275 274 274 274 274 273 272 272 272 271 270 269 268 267 266 265 264 264 263 262 261 261 261 260 260 259 259 258 257 257 256 255 255 254 254 253 253 252 252 251 251 250 249 249 248 247 247
290 290 290 290 290 290 291 290 290 291 292 292 292 292 292 293 293 293 294 294 294 293 293 292 291 291 290 290 289 289 287 286 285 283 282 281 281 280 279 278 277 276 276 276 276 276 276 275 274 273 272 270 269 268 267 266 265 264 262 262 262 261 261 260 259 259 258 258 257 256 255 255 254 254 253 252 252 251 251 250 250 249 249 248 247 247
297 296 296 296 297 297 297 297 297 298 299 299 299 299 299 299 299 299 299 299 298 297 296 295 294 293 292 291 290 289 287 286 285 284 283 282 282 281 281 280 279 278 278 278 279 279 279 278 277 276 275 273 271 269 268 267 266 265 264 263 262 261 260 259 259 259 258 257 257 256 255 254 254 253 253 252 251 251 250 250 249 249 248 248 247 246
303 302 302 302 303 303 303 303 304 304 304 303 303 302 302 303 303 303 302 301 300 298 297 296 294 293 292 290 289 287 285 284 283 282 281 281 280 280 280 280 280 279 279 279 279 279 279 279 278 277 276 275 273 271 269 268 267 266 265 264 262 260 260 259 259 258 257 257 256 255 254 253 253 252 252 251 250 250 250 249 249 248 248 247 247 246
306 305 305 305 305 305 305 305 305 305 305 305 305 305 305 306 306 306 305 303 301 299 298 296 294 292 291 289 287 286 284 283 282 281 281 280 280 280 280 280 280 280 280 280 280 279 279 278 278 277 275 274 273 272 270 269 267 266 265 264 262 261 259 258 257 257 256 256 255 255 254 253 252 251 251 250 250 249 249 248 248 248 247 247 246 246
307 307 306 306 306 306 306 305 305 305 306 306 307 308 309 310 310 310 308 306 304 301 299 297 295 293 291 288 286 285 285 284 283 283 282 282 282 282 282 282 282 282 282 281 281 280 279 279 278 277 276 275 274 273 271 270 268 266 265 263 262 260 258 257 256 256 256 256 255 255 254 253 252 251 250 249 249 248 248 248 247 247 247 246 246 245
309 308 307 306 306 306 305 305 305 306 307 307 308 310 311 312 313 312 311 309 306 304 301 299 297 295 292 290 287 286 285 285 285 284 284 284 284 284 284 284 284 284 284 283 282 281 280 279 278 277 277 276 275 274 272 270 268 266 265 263 262 260 258 257 256 256 255 255 255 255 254 253 252 251 250 250 249 248 248 247 246 246 246 245 245 244
310 308 307 306 306 305 304 304 305 305 306 307 308 309 311 312 313 313 312 310 308 306 303 300 298 296 294 292 290 288 287 287 286 286 286 286 286 286 286 286 285 285 284 283 282 281 280 279 278 277 277 276 275 274 273 271 269 267 265 264 262 261 259 258 256 255 255 255 255 255 255 254 254 253 252 250 249 248 247 246 245 245 244 244 244 243
309 307 306 304 303 303 302 302 302 303 304 305 306 308 310 312 313 313 312 311 309 307 304 302 299 297 295 294 293 292 291 290 290 289 289 289 289 289 289 289 288 287 286 284 283 282 281 280 279 278 278 277 276 275 273 272 270 268 266 264 263 261 260 258 257 256 255 254 254 254 254 254 254 253 252 251 249 248 247 245 244 243 242 242 242 241
305 304 303 302 301 300 299 299 300 300 302 303 305 307 309 311 313 313 313 312 310 308 306 304 302 300 299 298 297 297 296 296 294 293 292 292 292 292 293 292 292 291 290 289 288 287 286 284 283 282 281 279 277 275 273 271 269 267 265 264 262 261 260 259 258 257 255 254 253 253 253 253 252 252 251 250 249 247 245 244 242 241 240 240 239 239
303 302 301 300 299 298 298 298 298 299 301 303 305 307 309 311 313 314 314 313 312 310 309 307 307 306 306 306 306 305 304 302 300 298 297 296 296 296 296 296 295 295 294 293 293 292 291 290 288 287 285 282 280 277 274 271 268 266 264 262 261 260 259 258 257 256 256 254 253 252 252 251 251 250 249 248 247 245 243 241 240 239 238 237 237 236
302 301 300 300 299 298 298 298 298 299 301 303 305 307 310 313 315 316 317 317 316 315 315 316 317 318 318 318 317 315 314 311 308 305 302 301 300 299 298 297 296 296 295 295 294 293 292 291 289 288 287 285 282 280 276 273 269 266 264 262 261 259 258 257 256 256 255 254 253 252 251 250 249 248 247 246 244 242 240 238 237 236 235 234 234 233
301 301 300 300 299 298 298 298 298 299 301 303 306 309 312 315 318 320 321 322 324 327 329 332 333 333 331 328 325 322 319 316 312 308 306 304 302 300 298 297 296 295 294 293 292 290 289 288 287 287 286 285 284 282 279 276 272 269 266 264 262 260 258 257 256 255 254 253 252 251 250 249 248 246 245 243 242 240 238 236 235 234 233 232 231 230
Height
5652 5651 5650 5650 5650 5649 5648 5648 5649 5649 5649 5649 5649 5648 5646 5644 5642 5641 5639 5639 5638 5638 5639 5639 5639 5639 5639 5639 5638 5638 5638 5638 5637 5637 5637 5637 5638 5638 5638 5639 5639 5639 5639 5639 5639 5640 5640 5640 5640 5640 5640 5640 5640 5640 5640 5640 5641 5641 5642 5642 5643 5644 5645 5645 5646 5646 5646 5647 5647 5647 5648 5648 5649 5650 5650 5651 5651 5652 5651 5652 5653 5653 5654 5655 5656 5656
5646 5646 5645 5645 5645 5644 5643 5642 5643 5643 5642 5643 5642 5641 5638 5636 5635 5633 5633 5633 5633 5634 5634 5634 5634 5634 5633 5633 5632 5632 5632 5631 5631 5631 5631 5632 5632 5633 5633 5633 5634 5634 5634 5634 5634 5634 5634 5635 5635 5635 5635 5635 5635 5635 5635 5636 5636 5636 5637 5637 5638 5639 5640 5640 5641 5642 5642 5642 5643 5643 5644 5644 5645 5646 5646 5647 5648 5648 5648 5649 5649 5650 5650 5651 5652 5653
5642 5641 5640 5640 5640 5639 5638 5637 5638 5637 5636 5636 5636 5634 5632 5631 5630 5629 5628 5628 5628 5628 5628 5628 5628 5627 5627 5626 5626 5626 5626 5625 5625 5625 5626 5626 5626 5627 5627 5628 5628 5628 5628 5628 5628 5629 5629 5629 5629 5630 5630 5630 5630 5630 5630 5631 5631 5631 5631 5632 5633 5634 5634 5635 5636 5637 5637 5638 5638 5639 5639 5640 5641 5641 5642 5643 5643 5644 5645 5645 5646 5646 5646 5647 5648 5649
5636 5636 5635 5635 5635 5635 5634 5633 5632 5632 5631 5630 5629 5629 5628 5627 5626 5625 5624 5624 5623 5622 5621 5621 5621 5621 5621 5620 5620 5620 5620 5620 5619 5620 5620 5620 5621 5621 5622 5622 5622 5622 5623 5623 5623 5623 5623 5624 5624 5624 5625 5625 5625 5625 5625 5626 5626 5626 5626 5627 5628 5628 5629 5630 5631 5632 5633 5633 5634 5635 5635 5636 5636 5637 5638 5638 5639 5640 5641 5641 5642 5642 5643 5643 5644 5645
5631 5631 5630 5630 5630 5629 5627 5626 5626 5624 5624 5623 5623 5623 5623 5622 5621 5620 5620 5619 5618 5617 5616 5616 5616 5615 5615 5615 5615 5615 5614 5614 5614 5614 5614 5614 5615 5616 5616 5616 5616 5617 5617 5617 5618 5618 5618 5618 5619 5619 5619 5620 5620 5620 5620 5620 5621 5621 5621 5622 5622 5623 5624 5625 5626 5627 5628 5629 5630 5630 5631 5631 5632 5632 5633 5634 5635 5636 5636 5637 5638 5638 5639 5640 5640 5641
5625 5624 5623 5623 5623 5622 5621 5620 5619 5618 5617 5617 5617 5617 5616 5616 5615 5614 5614 5613 5613 5612 5612 5611 5611 5611 5610 5610 5609 5609 5609 5609 5609 5609 5609 5609 5609 5609 5610 5610 5611 5611 5611 5612 5612 5612 5612 5613 5613 5613 5614 5614 5614 5614 5615 5615 5615 5616 5616 5616 5617 5618 5619 5620 5621 5621 5622 5624 5625 5625 5626 5626 5627 5628 5629 5629 5630 5631 5632 5633 5633 5634 5634 5636 5636 5637
5618 5617 5617 5616 5616 5615 5615 5614 5613 5612 5612 5611 5611 5611 5610 5609 5609 5608 5607 5607 5607 5606 5606 5606 5606 5606 5605 5605 5604 5604 5604 5603 5603 5603 5603 5603 5603 5603 5604 5604 5604 5605 5605 5606 5606 5606 5606 5607 5607 5608 5608 5608 5609 5609 5609 5610 5610 5610 5611 5611 5612 5612 5613 5614 5615 5616 5617 5618 5620 5621 5621 5622 5622 5623 5624 5625 5626 5626 5627 5628 5629 5629 5630 5631 5632 5633
5611 5611 5611 5610 5610 5609 5609 5608 5607 5606 5606 5605 5605 5604 5604 5603 5602 5602 5601 5601 5601 5600 5600 5600 5599 5599 5599 5598 5598 5598 5598 5597 5597 5597 5597 5597 5597 5597 5597 5597 5598 5598 5599 5599 5600 5600 5600 5601 5601 5601 5602 5602 5603 5603 5604 5604 5605 5605 5605 5606 5606 5607 5608 5609 5610 5611 5612 5613 5614 5615 5616 5617 5618 5618 5619 5620 5621 5621 5622 5623 5624 5625 5626 5627 5628 5629
5606 5605 5605 5604 5604 5603 5602 5601 5601 5600 5600 5599 5598 5597 5597 5597 5596 5595 5595 5595 5594 5594 5594 5593 5593 5592 5592 5592 5592 5591 5591 5591 5591 5591 5591 5591 5591 5591 5591 5591 5591 5592 5592 5593 5593 5593 5594 5594 5595 5595 5596 5596 5597 5597 5598 5599 5599 5600 5600 5601 5601 5602 5603 5603 5604 5605 5606 5607 5609 5610 5611 5612 5613 5613 5614 5615 5616 5616 5617 5618 5619 5620 5621 5622 5623 5624
5600 5599 5599 5598 5598 5597 5597 5596 5594 5594 5594 5593 5591 5591 5591 5590 5589 5589 5589 5588 5588 5587 5587 5586 5586 5586 5586 5586 5585 5585 5584 5584 5584 5584 5584 5584 5584 5584 5584 5584 5585 5585 5586 5586 5586 5587 5587 5588 5588 5589 5589 5590 5591 5591 5592 5593 5594 5594 5595 5595 5596 5596 5597 5598 5599 5600 5601 5602 5603 5604 5606 5607 5608 5609 5609 5610 5611 5611 5612 5613 5614 5615 5616 5617 5618 5619
5594 5593 5593 5592 5592 5591 5591 5590 5588 5587 5587 5586 5585 5584 5583 5583 5583 5582 5581 5581 5581 5581 5580 5579 5579 5579 5579 5579 5579 5578 5578 5578 5578 5578 5578 5577 5577 5577 5578 5578 5578 5579 5580 5580 5580 5581 5581 5581 5582 5582 5583 5583 5584 5585 5586 5587 5588 5588 5589 5590 5590 5591 5591 5592 5593 5594 5595 5596 5597 5599 5600 5601 5602 5603 5604 5605 5606 5606 5607 5608 5609 5610 5611 5612 5613 5614
5587 5587 5586 5586 5585 5585 5584 5583 5582 5581 5581 5580 5578 5577 5576 5576 5576 5576 5575 5574 5574 5575 5574 5573 5573 5573 5573 5572 5572 5572 5572 5571 5571 5571 5571 5571 5571 5571 5571 5571 5572 5573 5573 5573 5574 5574 5575 5575 5575 5576 5576 5577 5578 5579 5579 5580 5581 5582 5583 5584 5584 5585 5586 5586 5587 5588 5590 5591 5592 5593 5594 5595 5596 5597 5599 5600 5601 5601 5602 5603 5604 5605 5606 5607 5608 5609
5581 5581 5580 5579 5579 5578 5577 5576 5575 5574 5574 5573 5571 5570 5569 5569 5570 5569 5568 5567 5568 5568 5568 5567 5567 5566 5566 5566 5566 5566 5566 5565 5565 5565 5565 5565 5565 5565 5565 5565 5565 5566 5566 5566 5567 5567 5568 5568 5569 5569 5570 5571 5571 5572 5573 5574 5574 5575 5576 5577 5578 5579 5580 5581 5581 5582 5584 5585 5586 5587 5588 5589 5590 5591 5593 5594 5595 5596 5596 5597 5598 5599 5601 5601 5603 5604
5575 5574 5574 5573 5572 5571 5570 5569 5568 5567 5566 5566 5565 5564 5563 5563 5563 5562 5561 5561 5561 5561 5561 5561 5561 5561 5561 5560 5559 5558 5558 5558 5558 5559 5559 5558 5558 5558 5558 5558 5558 5559 5559 5560 5560 5561 5561 5561 5562 5562 5563 5564 5565 5565 5566 5567 5568 5569 5570 5571 5571 5572 5573 5574 5575 5576 5577 5578 5579 5581 5581 5583 5584 5585 5586 5588 5589 5590 5591 5592 5593 5594 5595 5596 5597 5598
5569 5568 5567 5566 5565 5564 5564 5563 5562 5561 5560 5559 5559 5558 5557 5556 5556 5555 5555 5554 5554 5554 5555 5554 5554 5554 5554 5553 5552 5551 5551 5551 5551 5552 5552 5552 5552 5552 5551 5551 5551 5551 5552 5553 5553 5553 5554 5554 5555 5555 5556 5557 5557 5558 5559 5560 5561 5562 5563 5564 5565 5566 5567 5568 5569 5570 5571 5571 5573 5574 5575 5576 5577 5579 5580 5581 5582 5584 5585 5586 5587 5588 5589 5590 5591 5593
5563 5562 5561 5560 5559 5558 5557 5556 5555 5554 5553 5552 5552 5551 5550 5549 5548 5548 5548 5547 5546 5546 5547 5546 5546 5546 5547 5546 5546 5545 5544 5543 5543 5544 5545 5545 5545 5545 5545 5544 5544 5544 5546 5546 5546 5546 5546 5547 5547 5547 5548 5549 5550 5551 5551 5552 5554 5555 5556 5557 5558 5559 5560 5561 5562 5563 5564 5565 5566 5567 5568 5569 5570 5571 5573 5574 5576 5577 5578 5580 5581 5582 5583 5584 5586 5587
5556 5555 5554 5553 5552 5551 5551 5550 5549 5547 5546 5546 5545 5544 5543 5542 5541 5541 5540 5539 5539 5539 5539 5538 5538 5539 5539 5539 5539 5537 5536 5536 5535 5536 5537 5538 5538 5538 5538 5537 5537 5537 5539 5540 5539 5539 5538 5539 5539 5539 5540 5541 5542 5543 5544 5545 5546 5547 5548 5549 5551 5551 5552 5554 5555 5556 5556 5557 5558 5560 5561 5562 5563 5564 5566 5567 5568 5570 5571 5573 5574 5576 5577 5578 5579 5581
5550 5549 5548 5547 5546 5545 5544 5543 5542 5541 5540 5538 5537 5536 5536 5535 5534 5533 5532 5531 5531 5531 5530 5530 5531 5531 5531 5531 5531 5530 5528 5528 5527 5527 5528 5530 5530 5530 5530 5530 5530 5530 5531 5532 5532 5531 5531 5531 5531 5531 5532 5533 5534 5534 5535 5536 5538 5539 5540 5541 5542 5544 5545 5546 5547 5548 5549 5550 5551 5552 5553 5554 5556 5557 5558 5560 5561 5563 5564 5566 5567 5569 5570 5571 5573 5574
5543 5542 5541 5540 5539 5538 5537 5536 5535 5533 5532 5531 5530 5529 5528 5527 5526 5526 5525 5523 5522 5522 5522 5522 5522 5522 5522 5523 5522 5521 5521 5521 5519 5518 5519 5521 5522 5521 5521 5521 5521 5521 5522 5523 5524 5523 5523 5522 5522 5523 5524 5524 5525 5526 5526 5527 5529 5530 5531 5533 5534 5535 5536 5538 5539 5540 5541 5542 5543 5545 5546 5547 5548 5549 5551 5552 5553 5555 5556 5558 5560 5561 5563 5564 5566 5567
5536 5536 5534 5532 5531 5530 5529 5528 5527 5525 5523 5522 5521 5521 5520 5518 5517 5517 5516 5514 5514 5513 5513 5513 5513 5513 5513 5514 5513 5512 5511 5511 5511 5509 5509 5511 5512 5513 5513 5513 5512 5512 5513 5514 5515 5514 5514 5514 5514 5514 5515 5516 5516 5516 5517 5518 5519 5521 5522 5523 5525 5526 5527 5529 5530 5531 5533 5534 5535 5536 5538 5539 5540 5541 5543 5544 5546 5547 5549 5550 5552 5554 5555 5557 5559 5560
5529 5527 5526 5525 5523 5522 5520 5519 5518 5516 5514 5513 5512 5511 5510 5509 5508 5507 5506 5505 5504 5504 5503 5503 5503 5503 5503 5504 5504 5502 5501 5501 5501 5500 5499 5501 5503 5504 5504 5503 5503 5502 5503 5504 5505 5505 5504 5504 5504 5505 5506 5506 5506 5507 5508 5509 5510 5511 5512 5514 5515 5516 5518 5519 5521 5522 5524 5525 5526 5528 5529 5531 5532 5533 5535 5536 5537 5539 5541 5542 5544 5546 5547 5549 5551 5553
5520 5518 5517 5516 5514 5513 5511 5509 5508 5506 5505 5503 5502 5501 5500 5499 5499 5497 5496 5495 5495 5494 5493 5493 5493 5493 5494 5495 5494 5492 5491 5491 5491 5489 5488 5490 5492 5494 5494 5493 5493 5492 5492 5494 5495 5495 5495 5494 5494 5495 5496 5497 5497 5497 5498 5499 5500 5501 5502 5504 5505 5506 5507 5509 5511 5512 5514 5516 5517 5519 5520 5522 5523 5525 5526 5528 5529 5531 5532 5534 5536 5537 5539 5541 5543 5545
5511 5509 5507 5506 5505 5503 5501 5500 5498 5497 5495 5494 5493 5491 5490 5489 5489 5487 5486 5485 5485 5484 5483 5483 5484 5484 5484 5484 5484 5483 5482 5481 5480 5478 5478 5479 5481 5482 5484 5484 5483 5482 5482 5484 5485 5486 5485 5485 5485 5485 5486 5487 5487 5487 5488 5489 5490 5491 5492 5493 5495 5496 5497 5498 5500 5501 5503 5505 5507 5509 5511 5512 5514 5516 5517 5519 5521 5522 5524 5526 5527 5529 5531 5533 5535 5537
5502 5500 5498 5497 5496 5494 5492 5491 5489 5487 5486 5484 5483 5481 5480 5479 5478 5477 5476 5475 5475 5474 5474 5474 5474 5475 5475 5474 5474 5474 5473 5471 5469 5468 5468 5468 5469 5471 5473 5473 5473 5472 5471 5473 5474 5475 5475 5475 5475 5476 5476 5477 5477 5477 5478 5479 5480 5481 5482 5483 5484 5485 5486 5487 5489 5491 5492 5494 5496 5498 5501 5502 5505 5506 5508 5510 5511 5513 5515 5516 5519 5521 5522 5525 5527 5529
5492 5491 5489 5488 5486 5485 5483 5481 5479 5478 5476 5475 5473 5471 5470 5468 5467 5466 5465 5465 5464 5464 5464 5464 5465 5465 5465 5464 5465 5465 5463 5460 5459 5459 5459 5457 5457 5459 5462 5462 5462 5461 5461 5461 5462 5464 5465 5465 5464 5465 5467 5467 5467 5467 5467 5468 5469 5470 5471 5472 5473 5474 5475 5476 5478 5479 5481 5483 5485 5487 5490 5492 5494 5496 5498 5500 5502 5504 5506 5507 5510 5511 5514 5516 5518 5521
5483 5482 5480 5478 5476 5475 5473 5471 5470 5468 5467 5465 5464 5462 5460 5458 5457 5456 5455 5454 5453 5453 5453 5453 5453 5453 5453 5454 5455 5455 5452 5450 5449 5449 5448 5446 5446 5448 5451 5451 5451 5451 5450 5449 5450 5452 5455 5454 5454 5455 5456 5457 5457 5456 5457 5458 5459 5459 5461 5461 5463 5463 5464 5465 5466 5468 5470 5471 5474 5476 5478 5481 5483 5486 5488 5490 5492 5494 5496 5498 5500 5502 5504 5507 5509 5512
5474 5472 5470 5468 5466 5464 5462 5461 5459 5457 5456 5455 5453 5452 5449 5448 5447 5447 5446 5443 5442 5441 5442 5442 5441 5441 5441 5443 5444 5443 5441 5440 5439 5438 5436 5435 5436 5437 5438 5438 5438 5439 5439 5437 5437 5440 5443 5444 5444 5444 5445 5446 5446 5446 5446 5447 5448 5448 5449 5450 5451 5452 5453 5454 5455 5456 5458 5460 5462 5464 5467 5469 5472 5474 5477 5479 5482 5484 5486 5488 5490 5492 5494 5497 5500 5503
5464 5461 5459 5457 5456 5454 5452 5451 5449 5447 5445 5443 5442 5440 5437 5436 5436 5436 5434 5431 5429 5430 5431 5430 5428 5428 5430 5431 5431 5431 5430 5430 5429 5426 5422 5423 5425 5426 5425 5424 5425 5427 5428 5425 5425 5427 5430 5433 5433 5433 5434 5435 5436 5435 5435 5436 5436 5437 5438 5439 5440 5441 5441 5443 5444 5445 5446 5448 5450 5452 5455 5457 5460 5463 5466 5468 5471 5473 5476 5477 5480 5481 5484 5486 5490 5493
5454 5451 5450 5447 5445 5443 5442 5440 5438 5436 5434 5433 5431 5428 5426 5424 5424 5424 5422 5418 5417 5417 5419 5417 5416 5416 5418 5419 5418 5418 5419 5420 5417 5413 5409 5411 5414 5414 5410 5408 5412 5416 5416 5412 5412 5415 5418 5420 5421 5421 5422 5424 5424 5423 5424 5424 5424 5425 5426 5427 5428 5429 5430 5431 5433 5434 5435 5436 5438 5440 5442 5445 5448 5451 5453 5456 5459 5461 5464 5466 5468 5471 5473 5476 5479 5483
5444 5442 5440 5438 5435 5433 5431 5429 5427 5425 5424 5422 5420 5417 5415 5413 5412 5412 5410 5407 5405 5406 5407 5405 5404 5403 5405 5405 5405 5406 5407 5407 5404 5400 5399 5401 5401 5399 5394 5394 5399 5403 5401 5399 5400 5403 5405 5406 5407 5409 5412 5412 5411 5411 5411 5412 5412 5412 5413 5414 5416 5417 5418 5420 5421 5422 5423 5424 5426 5427 5430 5432 5435 5438 5441 5443 5446 5449 5452 5455 5457 5460 5462 5465 5469 5472
5434 5432 5430 5428 5425 5423 5421 5419 5417 5415 5413 5411 5409 5407 5405 5402 5401 5400 5398 5396 5395 5394 5394 5393 5392 5392 5391 5392 5393 5395 5396 5394 5391 5388 5387 5390 5389 5384 5378 5379 5385 5389 5386 5383 5386 5391 5393 5391 5392 5396 5401 5401 5399 5397 5398 5399 5400 5400 5400 5401 5402 5404 5406 5407 5408 5409 5411 5412 5413 5415 5417 5419 5422 5425 5428 5431 5434 5436 5440 5442 5445 5448 5451 5454 5458 5461
5423 5421 5419 5417 5415 5412 5410 5408 5406 5404 5402 5401 5398 5396 5394 5392 5390 5388 5386 5385 5384 5383 5382 5382 5381 5380 5379 5379 5381 5383 5384 5382 5378 5375 5374 5376 5376 5371 5365 5365 5371 5375 5372 5368 5370 5376 5380 5378 5378 5381 5386 5388 5388 5385 5384 5386 5388 5389 5388 5387 5389 5391 5392 5393 5394 5396 5398 5399 5400 5401 5404 5406 5409 5411 5415 5418 5421 5424 5427 5430 5433 5436 5439 5443 5447 5450
5411 5410 5407 5405 5403 5401 5399 5397 5395 5393 5391 5390 5387 5385 5383 5381 5379 5377 5375 5373 5372 5371 5370 5370 5369 5368 5367 5366 5368 5370 5371 5370 5366 5363 5360 5361 5362 5360 5354 5352 5356 5361 5360 5356 5355 5359 5363 5364 5364 5366 5369 5373 5374 5373 5372 5373 5375 5375 5375 5374 5375 5377 5378 5379 5380 5382 5384 5384 5385 5387 5390 5392 5395 5398 5401 5405 5408 5411 5414 5417 5421 5424 5427 5431 5435 5439
5400 5398 5396 5394 5391 5390 5387 5385 5383 5382 5380 5378 5376 5374 5372 5371 5369 5366 5364 5362 5360 5359 5358 5357 5357 5356 5356 5355 5355 5356 5357 5357 5354 5350 5346 5347 5348 5347 5343 5341 5342 5346 5346 5344 5343 5344 5346 5348 5350 5351 5353 5356 5358 5359 5360 5361 5361 5361 5360 5360 5361 5363 5364 5365 5366 5368 5370 5370 5370 5372 5376 5378 5381 5384 5387 5391 5394 5397 5401 5404 5407 5411 5414 5418 5422 5426
5389 5387 5385 5382 5380 5378 5376 5374 5372 5371 5369 5367 5365 5363 5361 5360 5357 5355 5353 5352 5351 5349 5347 5346 5345 5344 5344 5344 5344 5344 5344 5343 5340 5336 5335 5335 5335 5333 5330 5330 5331 5332 5331 5332 5331 5331 5331 5333 5335 5336 5338 5341 5343 5345 5346 5347 5347 5347 5346 5346 5347 5349 5350 5351 5352 5354 5355 5355 5356 5358 5361 5364 5366 5370 5373 5376 5380 5383 5387 5391 5394 5397 5401 5404 5408 5413
5379 5377 5374 5371 5369 5368 5366 5364 5361 5360 5358 5356 5354 5352 5351 5349 5348 5346 5345 5343 5341 5340 5338 5336 5334 5333 5333 5333 5334 5334 5334 5331 5328 5325 5325 5324 5323 5321 5320 5320 5320 5319 5319 5321 5321 5320 5318 5320 5322 5323 5325 5328 5331 5332 5332 5332 5333 5333 5333 5333 5333 5334 5336 5338 5339 5340 5340 5341 5343 5345 5348 5350 5353 5356 5359 5362 5366 5369 5373 5377 5381 5384 5387 5391 5395 5399
5369 5367 5364 5361 5359 5358 5356 5355 5352 5350 5349 5347 5346 5343 5342 5340 5339 5337 5336 5334 5332 5331 5330 5328 5326 5325 5324 5324 5324 5324 5324 5321 5319 5317 5316 5314 5312 5311 5312 5312 5310 5308 5308 5311 5311 5309 5307 5309 5311 5313 5314 5316 5318 5320 5320 5319 5319 5321 5322 5321 5320 5320 5323 5325 5326 5326 5326 5328 5331 5333 5335 5337 5340 5342 5345 5348 5351 5355 5359 5363 5366 5370 5373 5377 5381 5386
5360 5358 5355 5353 5351 5349 5348 5347 5345 5343 5341 5340 5339 5337 5335 5333 5332 5330 5328 5327 5326 5324 5323 5321 5320 5319 5318 5317 5316 5316 5315 5313 5312 5310 5308 5306 5304 5304 5304 5304 5303 5301 5301 5301 5301 5301 5300 5301 5302 5304 5305 5306 5307 5308 5309 5308 5309 5310 5311 5310 5309 5309 5312 5313 5313 5313 5314 5316 5319 5321 5323 5325 5327 5330 5332 5335 5338 5342 5346 5350 5353 5356 5360 5364 5368 5373
5352 5350 5348 5346 5344 5343 5342 5341 5339 5337 5335 5334 5333 5331 5329 5328 5326 5325 5323 5322 5321 5319 5317 5316 5315 5314 5313 5312 5311 5309 5308 5307 5305 5304 5302 5300 5299 5297 5297 5297 5297 5296 5294 5294 5294 5294 5294 5294 5295 5296 5297 5298 5298 5299 5299 5299 5300 5300 5300 5299 5300 5301 5303 5303 5302 5302 5303 5305 5307 5310 5311 5314 5316 5318 5321 5323 5326 5329 5333 5336 5339 5342 5346 5351 5355 5360
5346 5345 5343 5341 5339 5338 5337 5336 5334 5332 5331 5330 5328 5327 5325 5324 5323 5321 5320 5318 5316 5315 5313 5312 5311 5310 5309 5308 5306 5305 5303 5301 5300 5298 5297 5295 5294 5293 5292 5292 5292 5291 5290 5289 5289 5289 5289 5289 5289 5290 5290 5291 5291 5291 5291 5292 5292 5292 5291 5292 5293 5294 5294 5293 5293 5293 5294 5295 5297 5299 5301 5303 5305 5307 5310 5312 5315 5317 5321 5324 5327 5331 5335 5339 5343 5348
5342 5341 5339 5337 5336 5335 5333 5332 5331 5329 5328 5326 5325 5324 5322 5321 5320 5319 5317 5315 5313 5311 5310 5308 5307 5306 5305 5304 5302 5301 5299 5297 5295 5294 5292 5291 5290 5288 5288 5287 5287 5287 5286 5286 5286 5285 5285 5285 5285 5284 5284 5285 5285 5286 5286 5286 5286 5285 5285 5286 5286 5286 5286 5286 5286 5286 5286 5286 5288 5290 5292 5294 5295 5297 5300 5302 5304 5307 5310 5313 5316 5320 5324 5328 5332 5337
5339 5338 5336 5335 5333 5332 5331 5329 5328 5326 5325 5324 5323 5321 5320 5319 5317 5316 5315 5313 5311 5309 5306 5305 5304 5303 5302 5300 5298 5296 5294 5292 5291 5290 5288 5287 5286 5285 5284 5284 5283 5283 5283 5283 5282 5282 5281 5281 5281 5280 5280 5280 5280 5281 5281 5281 5281 5281 5281 5281 5280 5281 5281 5281 5281 5280 5279 5280 5281 5282 5284 5286 5287 5289 5291 5293 5295 5297 5300 5304 5307 5311 5314 5318 5322 5327
5337 5336 5334 5333 5331 5330 5328 5327 5326 5324 5323 5322 5321 5319 5317 5316 5315 5314 5313 5311 5309 5306 5304 5302 5301 5300 5299 5296 5294 5292 5290 5289 5287 5286 5285 5283 5282 5281 5280 5280 5279 5279 5279 5279 5279 5278 5277 5277 5277 5276 5276 5276 5276 5277 5277 5277 5277 5277 5276 5276 5276 5276 5277 5276 5275 5274 5275 5275 5275 5276 5277 5279 5280 5281 5283 5285 5287 5290 5292 5296 5299 5303 5306 5310 5313 5318
5336 5334 5332 5331 5329 5328 5326 5325 5324 5322 5321 5320 5318 5317 5316 5314 5313 5312 5310 5308 5306 5304 5302 5300 5298 5296 5295 5293 5291 5289 5287 5285 5283 5281 5280 5279 5278 5277 5277 5276 5276 5275 5275 5276 5275 5274 5274 5274 5273 5272 5272 5272 5272 5273 5273 5273 5273 5273 5272 5272 5272 5273 5273 5272 5271 5271 5271 5271 5271 5271 5272 5273 5274 5276 5277 5280 5282 5284 5287 5290 5293 5296 5299 5303 5306 5310
5334 5332 5331 5329 5328 5326 5325 5324 5322 5321 5319 5318 5316 5315 5313 5312 5310 5309 5307 5305 5303 5301 5298 5296 5295 5293 5291 5289 5287 5286 5284 5282 5280 5278 5277 5276 5275 5274 5274 5273 5272 5272 5271 5271 5271 5271 5271 5270 5269 5268 5268 5268 5268 5269 5269 5269 5269 5269 5268 5268 5268 5268 5268 5268 5268 5268 5268 5267 5267 5268 5268 5269 5270 5272 5274 5276 5278 5280 5282 5285 5288 5291 5294 5297 5300 5304
5333 5331 5329 5328 5326 5325 5323 5322 5320 5319 5317 5316 5314 5312 5311 5309 5307 5306 5304 5301 5299 5297 5294 5292 5291 5289 5286 5285 5283 5282 5281 5279 5277 5276 5274 5273 5272 5271 5271 5270 5269 5269 5268 5268 5267 5267 5267 5267 5266 5266 5265 5265 5265 5265 5265 5265 5265 5265 5265 5265 5265 5265 5265 5265 5265 5265 5265 5265 5265 5265 5265 5266 5267 5269 5271 5273 5275 5277 5279 5281 5284 5287 5289 5292 5295 5298
5331 5330 5328 5326 5325 5323 5321 5320 5318 5316 5315 5313 5311 5310 5308 5306 5304 5302 5300 5298 5296 5293 5291 5288 5286 5285 5283 5281 5280 5279 5278 5276 5275 5273 5272 5271 5270 5269 5268 5267 5266 5266 5265 5265 5264 5264 5263 5263 5263 5263 5263 5262 5262 5261 5261 5261 5261 5261 5261 5261 5261 5261 5261 5261 5262 5262 5261 5262 5262 5262 5262 5263 5265 5266 5268 5270 5272 5275 5276 5279 5281 5283 5286 5288 5291 5294
5329 5327 5326 5324 5322 5321 5319 5317 5316 5314 5312 5310 5309 5307 5305 5303 5301 5299 5297 5294 5292 5290 5287 5285 5283 5281 5280 5278 5277 5276 5275 5274 5272 5271 5270 5269 5268 5267 5266 5265 5264 5263 5262 5262 5261 5261 5260 5260 5260 5259 5259 5259 5258 5257 5257 5257 5257 5257 5256 5257 5257 5257 5258 5258 5258 5258 5258 5259 5259 5259 5260 5261 5262 5264 5266 5268 5270 5272 5274 5276 5278 5280 5282 5285 5287 5290
5327 5325 5324 5322 5320 5318 5316 5315 5313 5311 5310 5308 5306 5304 5302 5301 5299 5297 5294 5291 5289 5286 5284 5282 5281 5279 5278 5276 5275 5274 5273 5272 5271 5270 5268 5267 5266 5265 5264 5263 5262 5261 5260 5259 5259 5258 5257 5257 5256 5256 5255 5255 5254 5253 5252 5253 5253 5252 5252 5252 5253 5253 5253 5254 5254 5255 5255 5255 5255 5256 5257 5258 5260 5261 5263 5266 5267 5269 5271 5274 5276 5278 5280 5282 5284 5287
5325 5323 5321 5320 5318 5316 5314 5312 5311 5309 5307 5306 5304 5302 5300 5298 5296 5294 5291 5289 5287 5285 5283 5281 5279 5278 5277 5276 5274 5273 5272 5271 5270 5269 5267 5266 5265 5264 5263 5261 5261 5259 5258 5257 5256 5256 5255 5254 5253 5252 5251 5251 5250 5248 5248 5247 5247 5248 5248 5248 5248 5249 5249 5250 5250 5250 5251 5251 5251 5252 5254 5255 5257 5259 5261 5263 5264 5266 5269 5271 5273 5275 5277 5279 5282 5284
5322 5320 5319 5317 5315 5313 5312 5310 5309 5307 5305 5304 5302 5300 5298 5296 5294 5292 5290 5287 5285 5284 5282 5281 5279 5278 5276 5275 5274 5273 5271 5271 5269 5268 5266 5265 5264 5263 5261 5260 5259 5257 5256 5255 5253 5252 5252 5251 5250 5249 5248 5246 5245 5243 5243 5242 5242 5243 5243 5244 5244 5245 5245 5245 5246 5246 5246 5247 5248 5249 5250 5252 5253 5255 5257 5259 5261 5264 5266 5268 5271 5273 5275 5277 5279 5281